Orbital Elements at Epoch 2459000.5 (2020-May-31.0) TDB
Reference: JPL 33 (heliocentric ecliptic J2000)
Element | Value | Uncertainty (1-sigma) | Units |
e | .07473460546107018 | 3.7416e-08 | |
a | 2.587151856567607 | 1.1173e-08 | au |
q | 2.393802083299152 | 9.7798e-08 | au |
i | 8.476676152585254 | 4.2152e-06 | deg |
node | 241.2354206591022 | 2.8006e-05 | deg |
peri | 270.0052432453878 | 4.0895e-05 | deg |
M | 330.5232781148474 | 3.0485e-05 | deg |
tp | 2459124.953751230723 (2020-Oct-02.45375123) | 0.00012887 | TDB |
period | 1519.95702295606 4.16 | 9.846e-06 2.696e-08 | d yr |
n | .2368488020140601 | 1.5343e-09 | deg/d |
Q | 2.780501629836063 | 1.2008e-08 | au |
|
| | Orbit Determination Parameters
Additional Information
|